De Queen, AR

2:10 AM CST on February 11, 2016 (GMT -0600)
Helms Sevier County

Weather History for KDEQ - September, 2011

Change the Weather History Date:

Friday, September 9, 2011

  Actual Average Record
Temperature  
Mean Temperature 69 °F 76 °F  
Max Temperature 89 °F 89 °F 102 °F (1954)
Min Temperature 48 °F 64 °F 46 °F (1956)
Degree Days  
Heating Degree Days 0 0  
Month to date heating degree days 0 0  
Since 1 July heating degree days 0 0  
Cooling Degree Days 4 12  
Month to date cooling degree days 91 117  
Year to date cooling degree days 2280 1709  
Growing Degree Days 18 (Base 50)    
Moisture  
Dew Point 45 °F    
Average Humidity 55    
Maximum Humidity 93    
Minimum Humidity 17    
Precipitation  
Precipitation 0.00 in 0.13 in 1.62 in (1951)
Month to date precipitation 0.07 1.05  
Year to date precipitation 24.90 32.64  
Snow  
Snow 0.00 in - - ()
Month to date snowfall 0.0  
Since 1 July snowfall 0.0  
Since 1 September snowfall 0.0  
Snow Depth 0.00 in    
Sea Level Pressure  
Sea Level Pressure 29.96 in    
Wind  
Wind Speed 2 mph (North)    
Max Wind Speed 12 mph    
Max Gust Speed 18 mph    
Visibility 10 miles    
Events      
T = Trace of Precipitation, MM = Missing Value Source: NWS Daily Summary

Daily Weather History Graph

Daily Weather History Graph

Search for Another Location

Airport or City:

Trip Planner

Search our weather history database for the weather conditions in past years. The results will help you decide how hot, cold, wet, or windy it might be!

Date:

Astronomy

Sep. 09, 2011 Rise Set
Actual Time 6:56 AM CDT 7:32 PM CDT
Civil Twilight 6:31 AM CDT 7:58 PM CDT
Nautical Twilight 6:01 AM CDT 8:27 PM CDT
Astronomical Twilight 5:31 AM CDT 8:57 PM CDT
Moon 5:55 PM CDT (9/9) 4:22 AM CDT (9/9)
Length of Visible Light 13h 26m
Length of Day
12h 36m
Waxing Gibbous, 93% of the Moon is Illuminated
Sep 9
Waxing Gibbous
Sep 12
Full
Sep 20
Last Quarter
Sep 27
New
Oct 3
First Quarter

Hourly Weather History & Observations

Time (CDT) Temp. Dew Point Humidity Pressure Visibility Wind Dir Wind Speed Gust Speed Precip Events Conditions
12:53 AM 55.0 °F 48.0 °F 77% 30.00 in 10.0 mi Calm Calm - N/A   Clear
1:53 AM 54.0 °F 48.0 °F 80% 29.99 in 10.0 mi Calm Calm - N/A   Clear
2:53 AM 51.1 °F 48.0 °F 89% 29.98 in 10.0 mi Calm Calm - N/A   Clear
3:53 AM 51.1 °F 46.9 °F 86% 29.99 in 10.0 mi Calm Calm - N/A   Clear
4:53 AM 51.1 °F 46.0 °F 83% 29.99 in 10.0 mi Calm Calm - N/A   Clear
5:53 AM 48.9 °F 46.0 °F 90% 29.98 in 10.0 mi Calm Calm - N/A   Clear
6:53 AM 48.9 °F 45.0 °F 86% 30.00 in 10.0 mi Calm Calm - N/A   Clear
7:53 AM 53.1 °F 46.9 °F 80% 30.01 in 10.0 mi Calm Calm - N/A   Clear
8:53 AM 64.0 °F 48.0 °F 56% 30.01 in 10.0 mi Calm Calm - N/A   Clear
9:53 AM 72.0 °F 48.0 °F 43% 30.01 in 10.0 mi Calm Calm - N/A   Clear
10:53 AM 80.1 °F 46.0 °F 30% 30.01 in 10.0 mi Variable 3.5 mph - N/A   Clear
11:53 AM 82.0 °F 41.0 °F 23% 29.99 in 10.0 mi North 8.1 mph - N/A   Clear
12:53 PM 84.9 °F 41.0 °F 21% 29.97 in 10.0 mi NNE 5.8 mph - N/A   Clear
1:53 PM 86.0 °F 37.9 °F 18% 29.94 in 10.0 mi North 5.8 mph - N/A   Clear
3:53 PM 88.0 °F 37.9 °F 17% 29.89 in 10.0 mi Calm Calm - N/A   Clear
4:53 PM 88.0 °F 39.0 °F 18% 29.88 in 10.0 mi North 8.1 mph - N/A   Clear
5:53 PM 87.1 °F 39.9 °F 19% 29.88 in 10.0 mi North 4.6 mph - N/A   Clear
6:53 PM 84.0 °F 44.1 °F 25% 29.89 in 10.0 mi Calm Calm - N/A   Clear
7:53 PM 73.9 °F 48.9 °F 41% 29.90 in 10.0 mi Calm Calm - N/A   Clear
9:53 PM 64.0 °F 50.0 °F 60% 29.94 in 10.0 mi Calm Calm - N/A   Clear
10:53 PM 62.1 °F 51.1 °F 67% 29.95 in 10.0 mi Calm Calm - N/A   Clear
11:53 PM 59.0 °F 51.1 °F 75% 29.95 in 10.0 mi Calm Calm - N/A   Clear